This is the latest recevied weather packets stored in our database for station/object W7TTE. If no packets are shown the sender has not sent any weather packets the latest 10 day(s).
| Time | Temp. | Humidity | Pressure | Rain* | Wind** | Luminosity | Snow |
|---|---|---|---|---|---|---|---|
| 1778119758 | 27.22° C | 22% | 1014.6 hPa | 0 mm | - | 7 W/m² | - |
| 1778119454 | 27.22° C | 22% | 1014.4 hPa | 0 mm | - | 10 W/m² | - |
| 1778119151 | 27.22° C | 21% | 1014.5 hPa | 0 mm | - | 13 W/m² | - |
| 1778118850 | 27.78° C | 22% | 1014.5 hPa | 0 mm | - | 16 W/m² | - |
| 1778118546 | 27.78° C | 22% | 1014.6 hPa | 0 mm | - | 19 W/m² | - |
| 1778118243 | 27.78° C | 21% | 1014.5 hPa | 0 mm | - | 21 W/m² | - |
| 1778117939 | 27.78° C | 22% | 1014.6 hPa | 0 mm | - | 24 W/m² | - |
| 1778117636 | 28.33° C | 21% | 1014.5 hPa | 0 mm | - | 36 W/m² | - |
| 1778117334 | 28.33° C | 21% | 1014.5 hPa | 0 mm | - | 41 W/m² | - |
| 1778117030 | 28.33° C | 21% | 1014.5 hPa | 0 mm | - | 46 W/m² | - |
| 1778116727 | 28.89° C | 21% | 1014.7 hPa | 0 mm | - | 49 W/m² | - |
| 1778116424 | 28.89° C | 21% | 1014.5 hPa | 0 mm | - | 54 W/m² | - |
| 1778116124 | 28.89° C | 21% | 1014.7 hPa | 0 mm | - | 58 W/m² | - |
| 1778115819 | 28.89° C | 20% | 1014.5 hPa | 0 mm | - | 69 W/m² | - |
| 1778115516 | 28.89° C | 21% | 1014.7 hPa | 0 mm | - | 61 W/m² | - |
| 1778115213 | 28.89° C | 21% | 1014.7 hPa | 0 mm | - | 83 W/m² | - |
| 1778114910 | 28.89° C | 21% | 1014.6 hPa | 0 mm | - | 86 W/m² | - |
| 1778114607 | 29.44° C | 20% | 1014.6 hPa | 0 mm | - | 91 W/m² | - |
| 1778114304 | 29.44° C | 21% | 1014.7 hPa | 0 mm | - | 119 W/m² | - |
| 1778113999 | 29.44° C | 20% | 1014.5 hPa | 0 mm | - | 126 W/m² | - |
| 1778113695 | 29.44° C | 21% | 1014.5 hPa | 0 mm | - | 149 W/m² | - |
| 1778113391 | 30° C | 20% | 1014.6 hPa | 0 mm | - | 166 W/m² | - |
| 1778113089 | 29.44° C | 20% | 1014.4 hPa | 0 mm | - | 179 W/m² | - |
| 1778112786 | 30° C | 20% | 1014.5 hPa | 0 mm | - | 191 W/m² | - |
| 1778112482 | 29.44° C | 20% | 1014.6 hPa | 0 mm | - | 206 W/m² | - |
* Rain latest hour (hover to see other rain measurements)
** Current wind speed in m/s (hover to see current wind gust speed)